Flag for Germany Weather past 2 weeks in Potsdam, Brandenburg, Germany

Now
72 °F

Passing clouds.


Feels Like: 76 °F
Forecast: 68 / 93 °F
Wind: 5 mph from East

Location: Potsdam

Current Time: Jul 2, 2015 at 11:32:25 PM

Latest Report: Jul 2, 2015 at 11:00 PM


Visibility: 28 mi

Pressure: 30.24 "Hg

Humidity: 56%

Dew point: 55 °F

Location of PotsdamLocation

Historic Weather in Potsdam — Graph

°F

Potsdam temperature yesterday

Maximum temperature yesterday: 82 °F (at 6:00 PM)
Minimum temperature yesterday: 57 °F (at 5:00 AM)
Average temperature yesterday: 70 °F

Past Weeks' High & Low Weather Summary

 TemperatureHumidityPressure
High87 °F (Jul 2, 5:00 PM)100% (Jun 22, 9:00 PM)30.27 "Hg (Jun 22, 9:00 PM)
Low50 °F (Jun 23, 9:00 AM)28% (Jul 2, 4:00 PM)29.61 "Hg (Jun 23, 2:00 AM)
Average62 °F72%30.03 "Hg
* Reported Jun 17 10:00 PM — Jul 2 10:00 PM, Potsdam, Weather by CustomWeather, © 2015

Note: Actual official high and low records may vary slightly from our data, if they occured in-between our weather recording intervals... More about our weather records

Advertising

Potsdam weather history for previous 24 hours

 ConditionsComfort  
Time TempWeatherWind HumidityBarometerVisibility
10:00 PM
Thu, Jul 2
75 °FPassing clouds.5 mph52%30.23 "Hg28 mi
9:00 PM78 °FSunny.5 mph44%30.22 "Hg28 mi
8:00 PM82 °FSunny.6 mph36%30.21 "Hg28 mi
7:00 PM85 °FSunny.6 mph30%30.21 "Hg28 mi
6:00 PM87 °FSunny.5 mph28%30.21 "Hg25 mi
5:00 PM87 °FSunny.6 mph30%30.21 "Hg25 mi
4:00 PM86 °FSunny.6 mph28%30.22 "Hg25 mi
3:00 PM86 °FSunny.7 mph30%30.23 "Hg25 mi
2:00 PM84 °FSunny.5 mph30%30.24 "Hg25 mi
1:00 PM83 °FSunny.8 mph32%30.26 "Hg25 mi
12:00 PM81 °FSunny.7 mph35%30.26 "Hg28 mi
11:00 AM79 °FSunny.6 mph40%30.26 "Hg28 mi
10:00 AM75 °FSunny.5 mph47%30.27 "Hg28 mi
9:00 AM71 °FPassing clouds.5 mph56%30.27 "Hg28 mi
8:00 AM66 °FSunny.5 mph63%30.27 "Hg28 mi
7:00 AM63 °FSunny.5 mph68%30.27 "Hg28 mi
6:00 AM61 °FSunny.6 mph70%30.26 "Hg28 mi
5:00 AM61 °FSunny.6 mph72%30.25 "Hg28 mi
4:00 AM61 °FClear.6 mph71%30.25 "Hg28 mi
3:00 AM62 °FPassing clouds.5 mph72%30.25 "Hg28 mi
2:00 AM63 °FPassing clouds.5 mph67%30.24 "Hg28 mi
1:00 AM64 °FPassing clouds.5 mph65%30.24 "Hg28 mi
12:00 AM65 °FPassing clouds.6 mph60%30.22 "Hg31 mi
11:00 PM
Wed, Jul 1
67 °FPassing clouds.6 mph54%30.22 "Hg31 mi
Weather by CustomWeather, © 2015

See weather overviewHow to use our weather pages